Theta_e
313 317 322 320 320 321 322 326 329 332 328 325 325 319 316 317 316 318 321 321 318 321 321 317 318 317 318 319 318 317 317 323 324 324 323 326 325 323 326 322 324 324 323 330 333 336 338 340 342 343 342 342 342 341 342 342 341 342 342 341 341 340 340 339 335 335 336 335 334 334 334 333 334 333 333 335 336 336 335 335 336 337 338 339 339 339 338 333 329 329 328 327 327 327 328 329 329
315 320 323 320 321 320 324 329 329 334 329 318 319 318 315 318 318 320 323 324 322 318 319 318 319 319 319 318 317 318 317 319 320 321 324 323 323 324 323 323 324 323 324 328 332 336 338 340 342 343 341 342 342 341 342 341 341 341 341 341 340 339 339 337 334 335 335 333 333 332 333 334 334 332 331 332 334 335 334 334 335 336 337 338 339 339 338 336 333 332 331 331 330 330 330 330 331
317 321 322 320 321 321 331 331 326 333 328 316 319 325 317 316 321 323 325 327 323 317 320 318 318 320 319 320 318 318 320 320 317 322 327 321 322 322 321 324 323 324 324 326 331 334 337 338 341 343 340 341 341 341 342 341 341 341 341 340 339 339 339 335 333 335 335 333 333 333 334 335 336 336 333 333 334 334 334 334 335 336 337 337 339 339 338 337 336 335 334 333 333 333 333 333 333
318 322 321 320 321 326 345 338 335 339 327 319 319 324 323 319 323 326 326 324 321 318 321 318 318 318 316 322 319 317 321 321 316 320 328 322 322 321 320 323 323 325 325 327 331 332 335 337 339 342 341 340 340 341 341 341 341 340 340 339 339 339 337 333 333 335 334 333 334 334 335 336 338 338 336 335 335 334 334 334 336 336 336 337 337 338 337 336 335 334 334 334 334 334 334 334 335
320 322 317 318 322 326 340 333 333 332 320 323 317 318 329 327 325 326 326 322 319 319 321 319 319 317 315 321 319 320 323 320 316 315 321 322 322 321 321 322 323 325 326 328 331 332 334 335 338 339 340 340 340 341 341 341 341 341 340 339 339 338 336 333 334 335 334 334 334 335 336 337 338 338 337 336 336 334 333 334 335 336 336 336 337 337 335 334 332 330 329 328 328 328 328 329 332
320 321 318 317 317 318 327 322 321 323 323 328 318 320 327 325 324 321 324 323 320 318 318 318 319 317 318 320 317 320 321 319 318 317 320 322 322 321 321 321 322 325 327 328 331 333 333 335 336 338 339 339 339 340 340 341 340 340 340 339 338 336 334 334 335 334 334 335 334 336 337 338 338 338 338 336 336 335 332 333 334 335 335 335 336 334 332 331 329 328 327 326 325 324 322 320 325
318 319 323 322 318 321 332 326 325 327 321 321 317 321 322 320 319 317 321 322 320 317 316 318 317 317 318 318 316 316 316 317 320 320 321 323 323 323 321 321 322 325 327 329 331 334 333 335 335 337 339 338 339 339 340 341 340 340 339 339 338 335 333 334 335 334 335 334 333 337 338 337 338 338 338 336 336 335 331 331 332 333 333 333 333 332 331 331 330 330 329 328 327 325 323 319 319
317 320 325 333 333 334 339 328 331 330 316 317 318 319 321 318 316 317 321 318 317 318 318 320 318 319 318 315 319 318 313 317 321 320 321 323 324 323 321 321 323 324 328 330 332 334 334 334 334 336 338 338 339 339 339 339 339 340 339 339 337 334 334 335 335 335 334 333 334 337 337 337 338 338 338 336 334 333 331 329 331 332 331 332 332 331 331 332 331 330 329 328 327 325 325 321 314
317 319 324 331 328 330 337 327 323 324 322 323 320 321 323 318 316 317 320 318 317 319 319 319 317 318 319 318 323 320 315 319 321 320 322 322 322 322 321 321 323 324 327 330 332 334 334 335 334 336 337 337 339 339 339 339 339 339 338 338 337 334 336 336 334 335 334 334 335 336 337 337 337 338 338 336 333 332 331 330 331 332 331 331 330 330 329 330 330 329 329 328 327 326 326 321 309
318 319 324 330 325 321 325 323 322 322 326 323 318 321 320 315 317 317 319 318 316 318 318 316 316 318 319 319 323 319 317 319 320 322 322 322 321 321 322 322 323 325 327 329 332 334 334 335 334 336 337 337 338 339 339 339 339 339 338 338 337 334 335 335 333 334 332 334 336 335 337 337 337 338 338 337 335 333 332 331 331 332 331 331 329 328 327 328 329 329 329 327 327 326 326 321 306
326 328 330 331 326 319 315 322 331 331 328 322 319 321 317 314 316 318 318 316 315 317 316 315 317 321 319 320 325 319 315 318 320 322 321 320 319 320 322 322 323 325 328 329 331 333 333 334 335 335 337 338 338 339 339 340 340 339 338 338 337 334 334 334 334 333 331 333 334 335 337 337 337 337 338 337 336 335 333 332 332 332 332 331 330 329 327 327 327 328 328 327 327 326 325 320 304
324 334 342 337 323 319 318 324 332 334 334 324 319 318 314 315 316 316 316 316 316 318 318 316 316 319 320 322 323 316 313 318 320 320 320 320 318 319 321 322 323 326 329 331 331 332 333 334 335 335 337 338 338 339 339 340 340 339 337 338 338 334 333 334 333 334 332 331 333 334 336 337 337 337 338 337 337 335 333 333 333 333 332 331 331 329 327 325 326 325 325 325 325 324 323 313 300
332 333 337 328 320 322 321 323 328 332 334 321 316 316 312 314 316 314 316 317 317 317 317 315 316 316 318 320 321 320 316 318 321 319 320 319 318 319 320 322 323 325 329 331 332 333 334 335 335 335 337 338 338 338 338 339 341 340 338 338 338 334 333 334 333 334 334 332 332 335 336 336 337 337 338 337 337 335 334 334 333 333 332 332 331 329 325 324 326 324 323 322 320 320 317 306 298
334 336 333 321 319 326 322 320 324 324 323 320 318 318 315 315 316 315 315 317 318 316 313 312 314 316 316 316 324 331 320 315 320 319 319 319 319 319 320 321 323 325 327 330 332 333 334 335 335 335 336 338 338 338 338 339 340 340 339 338 338 336 333 334 334 334 335 333 332 333 336 337 337 338 338 337 337 336 335 334 333 333 332 332 330 328 325 323 325 324 322 321 318 315 310 301 298
324 336 338 325 320 323 320 317 322 321 321 321 316 314 317 316 314 317 316 315 317 314 310 310 311 315 316 314 321 325 316 314 319 318 319 318 318 320 319 320 322 324 326 328 330 333 334 335 335 335 336 337 338 338 338 338 340 340 340 339 338 337 334 333 334 334 334 334 333 333 335 337 337 337 337 337 337 336 335 334 334 333 332 332 330 328 325 324 324 323 321 320 317 313 305 298 298
324 335 332 320 316 317 318 317 321 323 323 323 315 313 318 316 312 314 315 313 315 313 312 314 312 313 315 315 315 314 312 314 316 317 319 318 319 320 320 319 320 323 326 328 330 333 335 335 336 336 335 336 337 338 339 338 339 339 339 339 338 338 337 335 334 334 334 334 334 333 334 336 336 336 337 337 336 336 335 334 334 333 332 331 329 328 325 324 323 322 320 318 317 313 305 298 298
324 334 332 320 317 317 320 321 320 320 325 327 320 315 315 318 315 312 310 311 315 315 314 316 312 312 315 315 313 311 311 312 314 317 318 319 320 320 321 322 322 324 327 328 329 332 335 336 336 336 336 335 336 337 338 339 339 339 339 339 338 338 337 337 335 334 334 333 333 333 334 335 335 335 337 337 336 336 335 334 333 333 332 331 329 327 326 325 323 322 320 318 316 313 306 298 297
330 335 326 319 323 323 324 328 323 317 320 322 317 314 314 317 317 313 312 314 319 317 315 315 313 311 312 311 310 310 311 311 314 317 318 319 320 320 321 322 323 324 326 327 327 328 332 336 337 337 336 336 335 336 337 338 339 338 338 337 339 339 338 337 337 335 334 333 332 333 334 335 335 335 336 336 335 335 334 333 332 332 332 331 328 327 326 325 324 322 320 319 316 311 306 299 297
338 332 316 324 334 326 324 328 325 318 316 318 317 314 313 314 314 312 313 317 319 317 315 315 315 315 312 310 310 310 309 311 314 317 318 318 317 318 318 319 321 323 324 326 326 326 328 331 335 336 336 336 336 336 336 337 338 339 339 338 338 339 338 337 336 336 335 334 333 332 333 335 336 335 335 335 335 335 334 332 331 331 331 330 328 327 326 325 324 323 321 320 316 312 308 300 296
331 324 319 334 333 323 323 324 322 319 316 318 319 314 313 314 313 312 313 316 317 317 316 315 316 316 314 311 307 307 307 308 310 313 313 313 312 312 312 314 315 317 320 322 325 326 326 328 330 333 335 336 336 336 336 336 337 337 338 339 340 339 338 337 337 337 336 335 334 334 334 335 335 334 333 335 335 335 334 332 331 331 330 329 328 327 326 325 324 323 321 320 317 313 309 302 296
319 320 327 332 321 319 323 324 324 320 316 316 317 316 315 315 313 313 313 315 317 316 316 314 315 314 313 311 304 303 305 305 306 307 307 307 308 308 308 309 309 311 313 316 319 321 323 326 327 330 332 334 335 337 336 336 337 337 336 337 338 340 340 338 336 337 338 336 335 335 335 336 336 335 333 334 334 334 334 333 331 330 330 330 328 327 327 326 324 323 322 321 319 315 312 305 298
318 322 328 328 320 317 321 324 323 318 315 314 317 317 316 314 313 314 314 315 315 314 313 312 312 309 308 309 305 303 304 304 304 304 304 304 305 306 308 309 310 310 311 312 314 315 317 321 325 328 329 332 334 336 336 336 336 337 338 337 335 337 340 339 335 335 336 336 336 335 335 335 336 337 336 334 333 333 333 332 331 331 330 329 327 327 326 325 324 324 323 321 320 317 314 309 301
319 324 324 324 321 317 320 322 318 316 315 316 318 314 312 314 314 315 314 314 314 312 312 311 309 305 305 306 305 306 306 305 304 303 304 304 304 305 306 309 311 312 312 312 312 313 314 316 322 325 327 330 332 334 335 335 336 336 337 338 337 335 335 336 337 336 335 335 334 334 334 335 335 335 335 335 334 334 333 332 331 330 328 327 326 326 326 325 324 324 323 322 321 319 316 312 305
319 323 324 322 318 319 322 321 319 318 316 317 316 311 312 315 314 314 313 313 312 308 306 306 305 304 304 305 305 305 305 303 303 304 304 304 304 305 306 308 310 312 314 314 313 312 313 315 318 322 325 327 330 333 334 334 335 336 336 337 338 337 334 332 333 333 335 335 334 333 333 334 335 334 333 334 334 333 333 331 329 328 327 327 326 325 325 324 324 323 323 323 321 320 318 315 309
321 323 325 321 317 320 321 318 319 318 316 314 312 312 314 314 313 313 313 312 309 305 304 305 305 305 304 304 305 303 303 302 302 303 303 303 304 306 308 308 310 312 313 315 315 314 313 314 316 319 321 324 329 331 333 333 334 335 336 337 337 338 336 334 333 331 332 335 336 334 334 333 333 333 333 334 334 332 330 329 329 328 328 327 326 325 325 324 324 323 323 323 322 320 318 316 312
321 322 321 318 315 317 316 314 316 315 314 313 312 314 314 312 312 311 312 309 306 307 308 307 307 307 305 304 304 303 302 302 301 302 302 303 304 305 306 307 308 309 312 316 318 317 316 314 316 318 319 322 327 330 331 332 333 334 335 335 336 335 333 332 332 330 330 335 336 334 334 333 333 332 333 333 332 331 330 329 329 329 328 328 327 327 326 325 324 324 324 323 321 320 318 317 314
317 318 317 316 315 315 315 315 315 312 312 313 312 315 313 310 312 313 310 305 307 314 311 306 307 306 304 303 302 302 301 301 301 301 301 301 302 302 303 305 307 307 310 315 319 321 320 319 319 320 321 322 326 329 331 331 332 333 334 334 334 334 334 333 332 330 331 333 332 328 329 331 333 332 331 330 329 330 330 329 329 330 329 328 328 327 327 325 324 324 323 322 321 319 318 317 315
314 314 315 317 315 314 315 315 314 310 311 313 312 315 313 309 312 314 308 303 309 318 312 306 306 305 303 303 302 301 300 300 301 300 300 300 300 301 301 303 304 307 309 311 317 322 323 323 323 323 323 324 326 328 330 331 332 332 332 331 330 331 331 330 330 330 330 332 330 328 328 330 332 332 330 330 329 329 329 329 330 330 329 328 328 327 326 325 324 324 323 322 320 319 317 316 315
313 313 314 317 316 316 314 313 313 310 312 314 312 315 317 316 314 311 306 304 309 315 311 307 305 304 303 303 301 301 300 300 300 299 299 299 299 300 300 301 303 306 307 309 315 321 324 325 325 325 325 325 326 327 328 330 331 331 331 329 328 328 328 327 327 327 329 330 330 330 331 330 330 331 331 331 331 330 330 330 329 329 329 328 327 327 325 324 324 323 322 321 320 318 317 316 316
313 314 313 315 316 318 315 310 311 310 312 313 313 316 326 328 316 309 307 309 316 316 310 307 305 304 303 302 302 301 299 299 299 299 299 299 299 299 300 301 303 304 307 310 314 318 322 324 325 326 326 326 326 327 328 328 329 330 330 330 330 330 330 330 329 329 330 330 331 331 331 330 330 330 330 329 329 329 329 329 329 328 328 328 327 326 325 324 323 322 321 320 319 318 317 317 316
315 312 316 318 315 323 322 313 313 313 312 311 312 317 325 326 314 307 308 311 322 319 308 306 305 303 303 302 302 301 300 299 298 298 298 298 298 299 299 300 302 304 307 309 312 315 319 322 324 325 326 327 327 327 328 328 329 329 329 329 329 330 329 329 328 328 329 328 328 329 328 328 328 328 327 327 326 326 327 327 328 327 327 327 326 325 324 323 322 321 321 320 319 318 318 317 316
323 314 322 324 316 323 324 315 316 315 312 310 312 319 321 320 312 306 306 311 321 317 307 306 304 303 302 302 301 301 300 298 298 298 298 298 298 298 299 300 301 303 305 308 311 315 318 320 322 324 325 326 326 327 327 327 327 328 327 327 327 327 327 326 325 324 325 325 324 324 324 324 324 324 324 324 324 324 324 325 325 324 325 325 325 324 323 322 321 321 320 319 319 318 317 317 316
327 316 320 325 318 319 318 315 316 314 312 311 312 318 321 320 312 305 305 311 320 315 306 304 303 303 302 301 301 300 300 298 298 297 297 298 297 297 298 299 301 302 304 307 311 314 316 317 320 321 322 323 324 325 325 325 325 325 325 325 325 324 323 323 323 323 323 323 322 321 321 321 321 321 322 322 321 321 321 321 321 321 321 321 321 321 321 320 320 319 319 319 318 318 317 316 316
326 318 316 320 317 316 317 319 316 311 312 312 312 314 316 318 313 308 305 309 317 313 306 304 302 302 301 301 300 299 299 298 297 296 296 297 297 297 298 299 300 301 303 306 308 311 313 315 317 318 319 320 321 321 322 322 322 322 322 321 321 321 320 320 320 321 321 320 320 320 320 320 320 320 320 319 319 318 318 318 318 317 317 317 317 317 317 317 317 317 317 317 316 316 316 315 315
326 322 318 321 318 315 317 318 315 312 314 315 315 315 316 317 315 312 305 306 313 309 303 303 302 302 301 300 300 299 298 298 297 296 296 296 296 297 297 298 300 301 302 304 306 308 310 312 314 316 316 317 317 318 319 319 319 319 319 319 318 317 317 317 317 317 317 317 317 317 318 318 317 317 317 317 317 316 316 315 314 314 314 315 314 314 314 314 314 314 314 314 314 313 313 313 313
323 321 320 322 320 318 318 317 316 313 314 317 316 316 317 316 316 314 306 305 308 305 303 303 302 301 301 300 300 299 298 297 296 295 295 295 295 296 297 297 298 300 301 303 305 307 308 309 311 313 313 314 315 316 316 316 315 314 314 314 313 311 312 312 312 312 312 313 313 313 314 314 314 314 314 314 314 313 313 312 312 312 312 312 312 311 311 310 310 311 311 311 311 311 311 311 310
315 316 317 318 317 318 318 317 317 313 313 320 320 318 317 316 317 312 306 307 307 305 304 303 302 302 301 300 300 298 298 297 295 295 295 295 295 295 296 297 298 299 300 301 303 304 304 306 308 308 309 311 313 313 313 312 311 310 309 307 306 305 307 308 307 307 307 307 308 309 308 308 309 309 309 310 310 310 310 310 310 310 310 310 309 309 308 307 307 307 307 307 307 308 308 308 308
313 314 316 316 316 316 314 315 317 313 313 321 322 319 318 317 316 309 307 310 308 305 304 303 302 302 301 300 299 298 298 296 295 294 294 294 294 294 295 295 296 296 297 299 300 300 302 304 304 304 306 308 308 308 309 308 307 307 305 304 303 303 303 304 303 303 303 304 304 304 304 304 305 305 305 305 306 306 306 306 306 306 306 307 307 307 306 306 305 305 304 304 304 304 305 305 306
313 313 313 315 316 316 318 319 319 315 313 321 322 317 317 317 311 306 306 307 306 304 304 303 302 302 301 300 299 298 298 296 295 294 293 293 293 293 294 294 294 295 295 296 297 298 300 301 302 303 304 305 304 305 305 304 304 304 304 303 303 302 300 301 301 301 301 302 302 302 302 302 302 303 302 302 303 302 302 302 302 302 303 303 304 304 304 304 304 303 302 302 302 302 302 303 303
313 313 313 315 315 316 321 321 319 316 313 318 319 316 319 318 311 306 304 303 303 302 303 303 301 301 301 299 299 298 297 296 295 294 292 292 292 292 293 293 293 294 294 295 296 297 298 299 300 301 302 302 302 302 303 302 302 302 302 301 301 301 300 300 301 300 300 300 299 300 300 300 300 300 300 301 300 300 300 300 300 300 300 300 301 301 301 302 302 302 301 300 299 299 300 300 300
316 316 314 315 315 316 319 318 319 319 318 315 314 318 324 322 317 311 305 303 303 302 302 302 301 300 299 298 298 297 296 295 294 294 292 291 291 291 291 292 292 292 293 293 294 295 296 298 299 300 300 301 301 301 301 301 301 301 301 301 301 301 300 300 299 297 297 297 296 296 296 297 298 298 298 298 299 299 299 299 299 299 299 299 299 299 300 300 300 300 300 300 298 297 297 297 298
319 320 317 315 316 317 317 317 316 321 326 317 312 323 332 328 323 313 306 305 304 303 303 302 301 300 300 299 298 297 296 295 293 293 291 291 291 291 291 291 291 292 292 292 293 295 296 297 298 299 300 300 300 300 300 301 301 301 301 299 297 295 293 292 291 290 292 292 292 292 293 294 294 295 295 295 296 296 297 297 297 298 298 298 298 298 298 298 299 299 299 299 298 297 296 296 296
320 322 319 316 315 316 317 317 317 324 328 315 310 320 328 330 326 313 306 307 305 303 303 302 301 301 300 300 299 297 296 295 293 292 290 290 290 290 290 290 290 291 290 291 293 294 295 297 298 298 298 298 298 299 299 300 299 298 296 294 291 289 288 287 287 288 288 289 289 289 290 290 291 291 291 291 292 292 293 294 294 295 296 296 296 297 297 297 297 298 298 298 297 297 297 296 296
323 321 320 320 318 318 319 318 319 323 322 319 319 319 320 327 323 308 306 309 306 304 304 302 302 301 301 300 299 297 296 295 294 293 291 289 289 289 289 290 290 289 290 291 292 293 293 294 295 295 295 295 295 296 296 296 295 294 292 290 288 288 287 287 287 288 288 288 288 288 288 288 288 288 288 288 288 289 289 290 290 291 291 292 292 293 293 294 295 296 297 297 297 297 296 296 296
324 317 316 319 319 320 321 320 320 318 316 323 326 318 318 326 319 306 306 311 310 306 304 303 302 301 301 299 298 297 296 295 293 293 291 289 289 289 289 289 289 288 289 289 290 291 291 292 292 292 292 291 291 292 292 292 291 290 289 288 288 287 287 288 288 288 288 288 288 288 288 288 288 288 288 288 288 288 288 288 288 288 288 288 288 289 289 289 290 291 292 293 295 295 295 295 295
317 312 316 318 317 319 321 322 322 318 318 324 325 319 320 324 319 311 311 314 314 308 303 303 303 302 301 299 298 296 295 294 292 291 290 289 289 288 288 288 288 288 288 288 289 290 290 290 290 290 289 289 289 290 290 289 289 289 288 288 288 288 288 288 288 288 288 288 288 288 288 288 288 288 288 288 288 287 287 287 287 287 287 287 287 287 287 287 287 287 287 288 289 291 292 293 294
311 315 323 322 319 321 322 323 321 320 324 325 324 321 319 322 323 317 314 314 313 308 304 303 303 302 302 300 298 296 295 295 293 290 289 289 288 288 288 288 287 287 288 288 288 289 289 289 289 289 288 288 288 288 288 288 288 288 288 288 288 288 288 288 288 288 288 288 288 288 288 288 288 288 288 288 287 287 287 287 287 287 287 287 287 286 287 287 287 287 287 287 287 287 288 288 290
314 323 326 323 322 321 321 324 322 323 327 323 319 317 315 321 325 318 314 312 310 308 306 303 303 302 301 299 298 297 296 295 293 292 290 288 288 288 287 287 287 287 287 288 287 288 288 288 288 288 287 288 288 288 288 288 288 288 288 288 288 288 288 288 288 288 288 288 288 287 288 287 287 287 287 287 287 287 287 287 286 286 286 286 286 286 286 286 286 286 286 286 286 287 286 286 287
318 324 324 324 326 323 323 326 322 323 323 315 313 316 314 318 321 318 317 313 308 307 305 302 302 301 300 299 298 297 296 295 294 293 291 288 288 287 287 287 287 287 287 287 287 287 287 287 288 288 288 288 288 288 288 288 288 288 288 288 288 288 288 288 288 288 287 287 287 287 287 287 287 287 287 286 286 286 286 286 286 285 286 285 285 285 285 285 285 285 285 285 285 285 286 286 286
318 323 324 326 327 327 330 327 319 320 319 311 310 314 316 318 318 316 315 310 304 304 305 303 301 300 299 298 297 296 296 295 295 294 291 288 288 287 287 287 287 287 287 287 287 287 287 288 288 288 288 288 288 289 288 288 288 288 288 288 288 288 288 288 288 287 287 287 287 287 287 287 287 286 286 286 286 285 285 285 285 285 285 285 285 285 285 285 285 285 285 284 284 284 284 284 285
317 320 322 323 327 329 330 327 322 321 320 314 310 314 322 323 315 307 305 303 301 302 303 303 301 300 299 297 296 296 295 295 294 293 291 288 288 287 286 287 286 286 286 287 287 287 288 288 288 288 288 288 288 288 288 288 288 288 288 288 288 288 288 288 288 287 287 287 287 287 287 287 287 286 286 285 285 285 284 284 284 284 285 284 284 284 284 284 284 284 284 284 284 284 284 284 284
315 315 318 321 324 324 321 321 320 318 318 318 314 317 323 318 308 301 301 301 300 301 302 302 302 300 298 297 296 296 295 294 294 294 291 288 288 287 286 286 286 286 287 287 287 287 288 288 288 288 288 288 288 288 289 289 288 289 289 288 289 289 289 288 288 288 288 287 287 287 287 287 287 287 286 286 285 285 284 284 284 284 283 283 283 283 283 283 283 284 284 284 284 284 283 284 283
314 314 320 319 316 318 319 318 315 314 317 319 318 319 319 315 308 303 302 303 301 300 301 301 300 298 297 297 296 295 294 294 293 293 290 288 288 288 287 287 286 286 287 287 287 288 288 288 288 288 288 288 289 289 289 289 289 289 289 289 289 289 289 289 289 288 288 288 288 288 288 288 288 288 287 287 286 286 285 285 284 284 283 283 283 282 282 282 282 282 282 283 283 283 283 283 283
317 319 320 315 313 317 321 321 319 319 320 319 318 318 318 318 314 307 304 305 303 300 300 300 299 298 297 296 296 295 294 293 293 291 289 288 289 288 287 287 287 287 287 287 288 288 288 288 288 288 289 289 289 289 289 289 289 289 289 289 289 289 289 289 289 289 288 288 288 288 288 288 287 287 287 287 287 286 285 285 284 284 284 283 283 282 282 282 281 281 281 281 281 282 282 282 282
316 318 315 313 318 320 319 320 322 322 321 320 322 319 316 318 317 314 313 311 305 301 299 299 299 298 297 297 296 294 293 292 292 292 289 288 288 288 287 287 287 287 288 288 288 288 288 288 289 289 289 289 289 289 289 289 289 289 289 289 289 288 288 288 288 288 288 288 287 287 287 287 286 286 286 285 285 284 284 283 283 283 282 282 282 282 281 281 281 281 281 281 281 281 281 281 282
311 313 312 314 317 319 319 319 319 322 320 320 322 319 317 319 319 320 321 313 304 301 300 299 299 298 297 297 295 294 293 292 292 292 290 287 288 289 287 287 288 288 288 288 288 289 288 288 289 289 289 289 289 289 289 289 289 289 288 288 288 288 288 288 288 288 288 288 287 287 287 286 285 285 284 283 282 282 281 281 281 281 281 281 281 281 281 281 281 280 280 280 280 280 280 280 280
315 316 317 315 314 316 319 316 316 321 321 320 320 318 320 321 315 316 318 309 302 301 300 299 298 298 297 296 295 294 293 292 291 291 289 287 289 289 288 288 288 288 289 289 289 289 289 289 289 289 289 289 289 289 289 289 288 288 288 288 288 288 288 288 288 288 287 287 286 286 285 284 284 283 283 282 281 281 280 280 280 280 280 280 280 280 280 280 280 280 279 279 279 279 279 279 280
319 320 320 318 315 316 319 317 316 317 318 320 319 317 320 317 308 308 311 307 303 301 300 300 299 298 297 296 295 294 293 292 291 290 289 287 288 289 288 288 288 289 289 289 289 289 289 289 289 289 289 289 289 289 289 288 288 288 288 288 288 288 288 287 287 286 285 285 285 284 284 283 283 283 282 281 281 280 280 280 279 279 279 278 278 278 278 278 278 278 278 278 278 278 278 279 279
Wind_Speed
11 10 11 10 9 6 3 4 2 2 4 3 1 1 2 3 0 1 3 3 1 2 3 2 1 3 0 2 4 5 4 5 5 3 1 5 3 3 13 11 4 9 20 22 26 30 27 27 24 22 22 20 20 19 18 17 16 15 15 14 12 11 10 10 9 10 9 9 8 8 8 8 7 7 8 8 8 8 7 7 7 6 5 5 6 7 7 6 6 6 5 5 4 5 5 5 6
10 10 11 8 7 4 1 3 3 3 5 3 1 2 3 3 1 3 5 4 4 3 3 3 1 2 2 2 3 1 2 5 5 2 3 5 5 5 12 12 6 8 19 22 24 29 28 27 25 23 22 21 20 19 19 18 17 16 16 14 13 12 11 10 10 11 10 9 8 8 7 6 5 4 6 6 7 7 7 7 7 6 4 4 5 7 6 5 5 5 4 3 2 2 3 3 3
10 9 11 8 4 3 1 3 2 1 5 2 3 4 2 1 3 6 7 7 6 4 4 2 1 1 3 4 1 2 2 4 3 2 4 5 3 3 10 13 8 8 17 20 22 28 29 28 26 24 23 22 21 19 19 18 18 17 16 15 14 12 11 11 11 11 10 9 8 8 7 6 5 4 4 5 6 6 6 6 6 6 4 3 5 7 5 4 4 4 4 2 2 3 4 4 5
10 9 11 5 1 4 4 4 2 4 3 2 2 4 2 3 6 7 7 7 6 4 3 1 0 2 2 3 1 1 3 4 3 4 2 3 2 2 8 13 9 10 17 20 20 26 28 28 27 25 24 23 21 20 19 19 18 17 17 16 15 13 12 12 12 11 10 10 9 8 7 6 6 5 6 6 6 6 6 6 6 5 4 4 6 6 4 3 3 3 3 4 4 5 6 7 7
8 6 9 3 2 2 3 3 2 4 2 4 1 4 4 6 6 6 7 7 5 2 1 2 1 2 1 1 2 1 3 2 3 5 2 3 2 2 7 13 10 11 16 19 19 23 27 28 27 26 24 23 21 21 19 19 18 17 17 16 15 14 13 13 12 11 11 10 9 8 7 7 7 7 7 7 7 7 7 6 6 5 5 4 4 3 2 2 3 6 8 9 9 9 9 10 10
7 4 6 6 3 1 2 2 2 0 3 5 1 4 5 5 6 4 7 7 3 2 1 1 0 1 1 2 2 3 3 0 2 4 3 3 2 3 7 12 11 10 14 19 19 21 25 27 27 26 25 23 22 21 21 20 19 18 17 16 16 15 14 13 12 12 11 10 9 8 7 7 7 7 8 9 9 8 7 7 5 5 4 4 3 1 4 5 6 8 10 12 12 11 10 11 11
8 4 4 5 2 2 3 3 3 2 2 4 2 4 6 5 5 2 6 4 1 1 1 0 1 2 1 3 2 4 4 2 2 2 4 4 3 4 8 11 10 10 13 18 19 20 23 26 27 26 26 23 22 22 22 21 19 19 18 16 16 16 15 14 13 13 12 11 10 8 7 8 8 8 9 10 10 8 8 7 5 5 4 4 3 1 4 4 6 8 11 13 13 12 11 12 11
7 4 1 3 1 4 4 2 3 2 0 3 4 5 7 6 4 1 3 1 0 2 2 2 1 1 2 3 2 5 2 4 5 5 7 5 5 6 9 10 10 9 12 16 18 19 21 24 26 26 26 24 22 22 22 21 20 20 18 17 17 17 15 15 14 13 13 11 10 9 8 8 8 9 10 10 9 8 7 5 5 5 4 3 3 3 2 2 3 5 9 13 14 13 13 14 10
6 4 1 3 2 3 3 0 2 3 3 5 4 5 6 4 3 1 2 3 2 1 3 4 1 0 3 4 3 5 3 3 5 6 6 5 6 6 9 10 9 8 11 15 16 18 20 23 26 26 26 25 23 22 22 21 21 20 18 17 17 17 16 16 15 15 14 12 11 9 9 10 9 10 10 10 8 6 4 4 4 4 3 3 4 5 6 7 6 5 8 13 15 14 14 14 10
4 5 1 3 2 2 3 1 1 2 5 4 5 8 6 2 2 0 1 3 1 1 5 2 1 1 2 3 4 3 3 5 5 4 4 5 6 7 9 9 8 8 9 13 15 16 18 21 25 26 26 25 24 23 22 21 21 20 19 17 17 17 17 16 15 15 15 13 12 10 10 10 10 11 11 10 8 6 4 3 3 3 3 4 6 8 8 10 10 8 11 15 15 14 14 14 11
2 4 2 4 4 1 1 3 3 4 6 5 5 6 6 4 1 1 1 4 2 1 4 1 1 2 0 3 3 3 5 6 3 1 2 5 5 6 9 9 8 8 9 10 12 14 16 19 23 26 26 25 25 24 23 22 22 20 19 18 18 18 17 17 16 15 15 14 13 11 10 11 11 12 11 10 8 7 5 4 3 4 5 6 8 9 9 9 10 10 13 15 15 16 15 14 11
2 3 4 4 2 1 2 2 4 6 7 5 3 2 3 4 2 1 2 3 3 4 4 2 1 2 1 3 4 5 7 5 1 1 3 5 5 6 8 9 8 8 9 9 11 13 14 17 21 24 25 25 25 24 23 23 22 21 19 19 18 18 18 17 16 15 15 14 13 12 12 11 11 12 11 9 9 7 7 6 5 6 7 8 10 11 9 8 7 10 13 14 15 16 15 12 9
2 1 4 3 2 2 2 2 4 5 5 3 2 2 1 3 1 4 3 2 2 4 4 4 2 2 0 3 4 6 6 5 1 3 4 6 6 7 8 9 9 8 9 10 12 12 13 15 18 22 24 25 25 25 24 23 23 22 20 19 18 18 19 18 17 16 15 15 15 13 13 12 11 13 12 11 10 9 8 7 6 6 7 9 10 11 10 7 7 11 13 13 14 14 12 10 7
2 3 4 2 1 2 3 1 2 1 3 3 3 4 2 1 3 4 4 3 5 2 2 3 4 2 1 3 5 5 5 7 1 3 4 6 7 8 9 10 11 10 10 11 12 12 13 14 16 20 23 25 25 25 25 24 24 22 21 20 18 18 19 18 18 17 16 16 16 15 14 13 11 13 13 12 11 10 9 8 7 7 8 9 11 11 11 8 8 12 13 14 14 12 10 8 6
3 2 5 3 2 1 3 1 2 4 3 3 2 4 4 3 2 2 3 1 5 4 1 1 2 1 1 2 5 6 5 9 5 4 5 6 8 8 10 11 12 12 11 11 12 13 13 14 15 18 21 25 26 26 26 25 24 23 22 20 19 19 19 19 18 17 17 17 17 17 16 14 12 13 14 13 12 10 10 8 7 8 9 10 12 12 11 8 8 13 14 15 14 13 10 7 6
3 4 5 2 1 2 3 2 3 3 4 5 3 2 4 6 1 1 4 2 3 2 2 2 2 1 2 3 6 6 7 10 8 7 6 7 8 9 11 11 12 13 13 12 12 14 14 14 15 16 19 23 25 26 26 25 25 24 22 22 21 20 19 19 19 18 17 17 18 17 16 15 14 14 14 14 12 11 10 9 8 9 9 10 12 12 11 10 10 14 15 15 16 14 11 8 6
3 4 5 2 1 2 3 4 3 2 4 6 5 4 3 7 3 1 2 3 3 4 3 4 3 1 5 4 8 11 13 13 10 9 7 7 8 9 9 9 10 11 12 12 12 14 15 16 16 17 18 20 23 26 26 26 26 24 23 22 22 21 20 19 19 19 18 18 18 18 17 16 15 14 14 14 13 11 10 9 9 9 10 11 11 11 12 12 12 14 16 15 16 15 11 8 7
4 4 3 0 3 3 5 6 6 3 3 6 4 3 1 6 6 4 3 2 4 4 3 5 6 5 5 6 11 13 14 13 9 8 9 8 6 6 6 6 8 9 11 12 13 14 15 17 17 18 18 18 21 24 26 27 26 25 24 23 23 22 21 20 19 18 19 18 18 18 18 16 14 13 13 14 13 12 11 10 10 10 11 11 11 11 12 13 13 14 16 16 16 15 11 9 8
4 3 2 2 5 5 5 7 5 3 2 6 5 2 2 4 4 4 4 6 7 7 6 2 5 8 7 8 10 13 13 13 9 7 9 9 9 9 10 9 8 9 10 12 13 14 16 17 18 19 19 19 19 22 25 26 26 25 24 23 23 23 22 21 20 19 19 19 19 18 19 17 15 14 13 14 14 13 12 12 11 11 11 12 12 12 13 13 13 14 16 17 17 16 12 10 9
2 4 1 5 6 4 4 5 6 5 2 5 6 1 1 5 4 2 4 7 6 6 6 3 5 8 8 9 11 15 13 13 12 10 11 12 12 11 12 13 12 12 11 12 13 14 16 18 19 20 20 20 20 21 23 24 25 25 25 23 22 23 23 21 20 20 19 19 19 18 18 17 16 15 15 15 15 14 14 13 12 12 13 13 12 12 13 13 13 14 16 18 19 17 14 11 10
2 3 3 5 3 2 5 6 6 6 2 3 4 4 6 5 2 1 1 5 8 5 4 4 6 8 8 8 11 15 16 17 18 17 16 15 15 14 13 12 12 12 12 14 14 14 16 18 19 20 20 20 20 21 22 23 24 24 24 23 22 22 22 23 22 21 21 20 19 18 18 18 18 18 16 16 16 15 15 14 13 13 14 13 12 13 15 14 13 15 17 19 19 18 16 12 11
2 3 5 5 4 2 5 5 5 3 2 2 4 6 7 3 1 3 3 5 7 1 2 6 5 5 3 5 8 12 15 16 17 19 18 17 17 17 17 15 12 11 10 11 13 13 14 16 19 19 19 19 20 20 21 23 23 23 23 22 23 22 21 23 24 24 22 20 19 19 17 18 18 18 18 18 17 16 16 15 14 13 12 12 13 15 17 14 13 16 18 19 19 19 17 14 13
1 3 2 3 4 3 4 1 3 1 2 3 3 4 3 5 7 4 5 8 5 2 1 3 4 5 7 9 9 10 11 11 13 16 16 17 18 18 20 19 17 15 12 10 9 10 11 13 16 18 19 19 19 19 20 21 22 22 22 22 22 21 19 21 21 23 23 18 18 18 18 20 19 19 20 18 18 18 18 15 12 11 13 15 15 16 17 15 14 16 18 19 19 19 18 15 14
2 3 4 3 4 5 5 2 3 1 2 6 2 3 4 6 7 3 4 4 2 4 5 8 10 11 12 12 10 9 9 10 12 14 15 17 17 17 19 20 19 18 15 13 8 7 8 10 13 15 17 18 18 18 18 20 20 20 20 20 20 19 19 19 19 18 20 17 16 17 21 23 20 20 22 20 19 17 14 10 12 14 15 16 15 16 16 16 17 18 19 20 19 19 19 17 15
3 5 4 2 2 6 6 4 6 5 6 5 2 5 7 8 3 5 8 3 5 5 8 8 9 13 13 11 10 9 9 12 13 15 17 18 18 19 22 23 22 22 20 17 12 6 4 6 9 11 13 15 16 16 16 18 19 19 19 18 17 18 19 17 16 18 21 21 17 17 23 22 19 21 23 21 16 13 13 13 16 17 16 15 15 17 17 17 18 19 20 19 20 20 19 18 16
5 5 3 3 4 6 5 5 6 5 4 2 2 9 8 5 2 4 5 4 5 6 10 8 9 12 10 9 9 9 9 12 15 15 16 19 22 24 24 24 24 24 23 19 15 10 5 1 4 6 8 11 14 14 14 16 16 17 17 16 15 16 16 13 12 16 20 21 15 14 20 20 19 18 19 17 11 13 15 14 15 16 17 17 17 18 17 16 17 18 19 19 19 20 20 19 18
3 3 3 4 6 7 3 5 7 3 4 4 5 11 6 3 2 2 3 2 3 8 10 8 10 10 8 7 7 9 10 12 15 15 17 22 24 25 25 25 25 24 23 22 19 15 9 5 4 4 4 6 9 11 11 12 14 14 14 14 14 14 14 12 10 13 16 16 14 14 15 16 19 16 13 14 13 14 15 13 14 15 16 16 17 19 18 17 17 17 18 18 19 20 20 20 19
2 0 4 6 6 7 4 6 8 2 3 5 7 7 4 2 2 3 2 3 3 10 9 8 9 7 7 7 7 9 10 13 16 17 18 20 20 21 23 24 23 22 23 23 21 17 13 11 10 9 7 4 5 8 8 9 10 11 11 11 10 8 6 7 5 6 10 11 12 13 10 10 15 16 13 15 14 14 15 16 17 14 13 15 17 18 17 17 17 17 17 18 18 19 19 20 20
2 3 4 8 7 7 6 4 4 1 2 4 6 4 5 3 4 0 2 2 7 10 8 7 8 6 6 6 6 7 10 14 18 18 18 18 19 20 21 22 21 21 22 22 21 20 18 16 15 14 12 10 7 5 5 6 6 6 7 6 5 3 1 1 0 1 4 8 8 7 8 9 12 14 15 17 17 16 14 13 13 12 12 14 16 16 16 16 16 16 17 17 17 18 19 19 20
1 3 2 6 7 7 6 1 2 0 2 3 3 3 7 7 4 4 3 4 8 9 7 6 6 6 6 6 6 6 10 15 16 18 19 20 20 20 21 21 21 21 21 22 24 23 21 19 18 17 16 15 13 10 7 6 4 3 2 3 3 4 5 6 7 7 8 9 9 8 10 11 11 12 15 16 15 15 12 9 10 10 12 14 15 15 15 15 15 16 16 16 16 17 18 19 19
2 2 2 3 2 5 7 1 0 2 1 2 3 2 7 9 2 4 4 3 8 7 6 5 5 5 5 5 6 6 9 13 16 19 20 21 20 21 21 22 22 22 22 24 25 25 24 23 21 19 19 18 17 14 12 11 9 8 5 1 1 2 2 3 3 2 2 4 4 5 7 7 8 9 11 11 11 11 10 9 10 11 12 13 14 14 14 14 14 15 15 15 16 17 18 18 19
2 2 3 3 2 5 10 5 4 3 2 3 4 2 6 9 2 4 7 4 8 8 5 5 6 6 5 5 6 5 7 12 17 20 21 21 20 21 21 22 23 23 23 24 24 26 26 26 25 23 22 21 20 18 16 15 13 12 11 8 7 8 8 10 13 13 12 12 12 11 10 10 8 7 6 6 7 8 9 10 11 11 12 13 13 13 13 13 13 14 14 15 16 17 18 18 19
3 0 4 4 2 3 7 4 2 3 0 3 1 2 4 7 3 4 8 5 9 8 5 6 5 6 6 5 5 5 6 9 14 19 21 20 20 20 21 22 23 23 23 23 24 26 27 28 28 28 27 25 24 22 21 21 20 19 18 17 16 16 16 16 16 16 17 17 16 17 17 15 14 13 12 12 11 10 10 10 11 11 11 11 11 11 12 12 13 13 14 14 16 17 18 19 20
3 1 3 4 3 2 3 4 3 2 2 1 1 2 5 9 5 4 10 6 8 8 5 6 5 5 5 4 5 5 6 6 9 15 19 19 19 19 21 22 23 23 24 24 25 26 26 27 28 30 30 29 28 27 26 26 25 25 24 24 23 22 23 22 20 19 19 18 17 18 17 16 15 15 14 13 13 13 13 13 13 12 11 11 10 10 11 11 12 13 14 14 15 17 18 19 20
4 3 2 3 3 3 4 5 3 4 3 1 1 4 8 11 10 6 10 6 8 8 5 5 5 5 5 5 5 5 6 6 8 14 17 17 18 19 21 23 24 24 24 24 25 25 26 26 27 28 29 30 30 30 30 29 28 28 27 26 26 26 25 24 23 22 21 20 19 18 16 16 16 15 14 13 14 14 14 14 14 13 13 13 13 12 12 12 12 13 14 14 15 17 18 19 21
6 5 4 4 4 4 5 6 4 2 4 4 5 7 8 10 10 6 8 6 8 7 5 5 4 4 4 5 5 5 6 6 9 14 16 17 19 20 22 23 24 25 25 25 25 25 26 25 25 26 26 26 26 27 28 28 28 29 28 28 28 28 27 26 25 25 23 22 20 19 17 17 16 15 14 13 13 13 13 14 13 13 13 13 13 13 13 13 13 13 13 14 15 15 16 18 19
3 3 4 5 4 5 5 6 5 0 1 6 7 6 7 8 6 6 5 4 6 5 5 5 4 4 4 4 4 5 5 5 9 14 16 18 20 21 22 23 25 26 27 27 27 27 26 26 26 26 25 23 23 24 25 26 27 29 30 31 32 31 29 28 28 27 26 24 22 21 20 19 17 16 16 15 14 14 13 13 13 13 13 13 13 13 13 13 12 13 13 13 13 13 15 15 17
3 4 5 4 4 6 6 5 5 1 2 6 5 5 8 6 3 5 4 4 4 2 4 4 4 4 3 4 4 4 4 4 8 13 16 20 21 22 23 24 25 25 26 27 27 27 26 27 27 27 26 25 26 25 25 27 28 28 31 32 32 32 31 30 30 30 28 26 25 24 23 21 20 19 18 17 16 16 15 15 16 15 14 13 12 12 12 12 12 13 13 14 13 12 13 14 15
5 3 2 5 4 3 6 5 4 2 3 4 4 4 8 5 2 3 4 3 2 2 3 3 4 4 3 4 4 4 4 4 6 9 14 19 21 21 22 23 24 24 25 26 27 27 28 27 27 27 27 27 27 27 28 29 28 28 30 31 31 32 33 31 31 30 28 27 27 26 25 23 22 21 21 19 19 19 18 18 18 17 17 16 14 13 13 12 13 13 14 14 14 13 13 13 14
4 3 2 6 3 0 4 5 4 1 2 3 2 3 6 4 1 3 4 3 3 4 4 4 3 3 3 3 3 4 4 5 5 6 11 17 19 20 21 21 23 25 26 27 27 28 29 29 28 27 26 26 26 26 27 28 28 28 30 31 31 32 32 30 29 29 28 28 29 28 27 26 24 23 23 21 21 21 21 20 20 19 19 18 17 17 16 16 15 14 14 15 15 15 13 12 13
2 5 6 6 4 5 7 4 4 3 2 1 1 4 5 4 3 1 3 3 4 4 4 5 4 3 3 4 4 5 4 4 5 5 8 13 16 17 19 20 23 26 27 27 27 28 29 30 30 30 28 27 26 25 24 24 25 26 27 28 28 30 30 30 30 31 31 31 31 31 30 28 27 26 25 24 23 23 22 22 21 20 20 20 20 20 19 18 17 16 16 15 15 15 14 13 13
3 5 10 10 7 8 7 3 5 4 4 3 2 3 4 4 3 2 2 3 3 3 4 4 3 3 4 4 4 4 4 4 4 6 7 11 13 15 18 21 23 25 25 25 27 28 30 31 32 32 32 31 30 28 26 25 26 27 27 29 29 31 33 32 32 33 33 34 33 32 32 30 30 29 29 28 27 26 24 23 23 22 22 22 22 21 20 20 20 19 18 16 16 16 15 15 15
3 5 8 10 8 7 5 1 2 0 3 2 2 2 4 6 3 1 3 3 2 1 2 1 2 3 3 3 3 3 4 4 4 6 8 10 11 13 17 19 21 22 23 25 28 30 32 33 34 34 34 34 33 32 31 31 33 34 35 36 35 35 34 31 31 33 34 34 33 33 33 32 31 31 31 31 30 29 28 27 26 25 24 24 23 22 22 22 21 20 18 17 17 17 17 17 17
3 4 4 6 7 6 4 4 4 3 2 4 3 3 3 6 3 1 3 4 1 2 2 2 0 2 2 3 3 3 3 3 4 5 6 9 11 13 15 17 19 20 22 26 29 31 32 33 35 35 36 36 35 34 34 34 36 38 38 38 37 36 34 32 32 33 33 32 32 32 32 32 31 31 31 31 30 30 29 29 28 27 27 26 25 25 24 23 21 20 19 17 17 17 18 17 17
5 3 5 5 5 5 4 5 3 2 1 4 4 1 2 6 3 2 2 3 5 6 5 4 3 2 1 2 2 3 3 3 4 4 5 7 10 12 13 15 18 20 22 27 29 31 32 33 34 35 35 35 35 35 35 36 36 37 37 37 36 34 33 33 32 32 32 31 32 31 31 31 30 30 30 29 29 29 28 28 27 27 27 27 26 26 25 24 24 23 22 21 19 18 17 16 16
4 5 6 5 5 4 4 4 3 1 1 4 6 4 3 5 3 1 1 3 6 5 5 4 4 4 3 2 2 2 3 3 4 4 6 7 8 10 13 16 18 20 23 26 28 30 31 32 33 34 35 34 34 33 34 35 34 34 35 34 34 32 31 31 31 31 30 29 30 30 29 29 29 28 28 28 28 27 27 26 26 26 26 25 25 24 24 24 24 24 24 23 21 20 19 17 16
4 5 5 5 5 4 3 2 3 1 3 6 8 7 5 4 4 3 4 4 5 7 6 6 6 6 5 4 3 3 3 2 3 4 6 7 8 10 13 16 18 20 23 25 27 29 30 31 32 34 33 32 32 32 32 33 33 33 33 32 31 30 30 30 30 31 29 29 29 28 27 27 27 27 26 26 26 26 25 25 25 25 24 24 24 24 24 23 22 22 21 21 21 21 21 20 18
5 3 4 3 3 4 4 4 3 1 5 5 4 1 3 5 5 4 5 4 6 8 10 12 11 9 7 5 4 4 3 3 3 3 4 6 8 10 12 16 18 20 23 24 26 27 29 30 31 33 32 31 31 31 31 32 31 31 31 30 30 29 29 30 30 30 29 28 28 27 26 26 26 26 26 26 26 25 24 23 23 23 23 24 24 23 23 22 21 20 20 20 20 20 20 21 20
4 4 5 3 3 3 3 3 1 3 5 3 2 2 2 6 6 5 6 5 5 6 8 13 15 12 9 7 5 4 3 3 3 3 3 5 7 9 11 15 17 19 21 23 25 26 28 29 30 32 31 29 29 29 30 30 30 30 29 29 29 28 28 29 29 28 27 27 26 26 26 26 26 27 27 27 27 26 25 24 23 23 23 23 22 22 22 22 21 21 21 21 20 20 20 20 20
4 4 4 3 2 2 2 3 2 4 4 2 2 1 2 4 4 3 5 4 4 5 5 9 12 11 10 7 6 5 4 4 4 3 3 4 7 8 11 15 17 18 20 22 23 25 27 28 29 30 29 27 27 27 27 28 28 27 27 27 27 27 27 28 27 26 25 25 25 25 24 24 25 26 27 27 26 25 24 24 24 23 23 23 23 22 22 22 22 22 22 22 21 21 20 19 19
4 4 4 4 4 3 3 4 3 4 4 3 2 1 2 3 2 3 4 5 4 3 3 5 7 6 7 6 5 5 5 4 4 4 4 6 8 9 12 14 16 18 19 21 22 23 25 26 27 28 27 25 25 25 25 26 26 25 25 26 26 26 26 26 25 24 24 23 23 23 23 23 24 25 26 26 26 26 26 25 25 24 24 24 24 24 24 24 23 23 23 23 23 23 23 22 21
2 3 4 2 4 4 2 2 4 2 2 3 2 3 4 3 1 2 2 2 4 2 5 8 7 6 6 5 5 6 5 5 5 4 5 7 9 10 12 14 16 17 19 20 21 22 24 25 25 25 25 23 23 23 23 23 23 23 23 24 24 23 23 23 22 22 22 21 21 21 22 22 24 25 26 27 27 27 27 27 27 27 27 27 27 27 27 26 26 26 26 26 26 26 26 26 25
1 2 3 3 3 4 1 1 2 3 2 4 1 2 5 1 1 3 3 3 3 3 5 8 8 7 7 6 6 6 6 6 5 5 6 8 10 11 13 15 16 17 19 19 20 21 22 23 23 23 23 22 21 21 21 21 21 21 21 21 20 20 20 20 20 20 20 19 19 20 20 21 22 24 25 26 26 26 27 27 28 29 29 30 30 29 29 28 28 28 28 28 28 28 29 28 28
4 2 4 3 1 3 2 1 2 2 3 4 0 3 5 2 2 3 3 1 1 2 5 7 7 7 8 8 8 7 7 6 6 5 7 9 11 12 14 15 16 18 18 18 18 18 19 20 21 21 21 20 19 19 19 19 19 18 18 17 17 17 17 17 17 17 16 16 16 17 18 19 20 21 22 23 24 24 25 26 27 28 29 29 30 30 30 30 29 29 29 29 29 29 30 30 30
4 3 2 2 2 1 2 1 1 2 4 4 2 4 4 4 4 1 3 7 7 6 6 8 10 12 11 10 10 9 7 6 5 5 6 9 12 14 15 16 16 16 16 16 16 16 17 17 17 18 18 17 17 16 17 16 15 14 13 13 13 12 12 13 13 13 14 15 15 16 18 19 19 21 22 23 24 24 25 25 26 27 28 29 29 29 30 30 30 30 30 30 30 29 30 31 31
3 1 1 2 2 2 2 2 2 3 5 5 5 5 4 5 5 6 9 10 10 10 9 11 14 15 13 12 11 9 8 7 7 6 6 10 14 15 16 17 16 16 15 15 15 15 15 15 14 15 15 14 14 13 13 12 11 10 9 8 8 8 9 11 12 14 15 16 17 18 19 20 21 22 23 24 24 25 26 26 27 28 28 29 29 29 30 30 30 30 30 31 31 30 31 32 32
2 1 1 1 1 1 1 1 2 2 2 3 4 7 7 4 3 6 7 7 10 14 13 13 14 14 14 12 10 9 8 8 8 7 7 11 14 16 16 17 16 15 15 14 14 14 13 12 11 11 10 10 9 9 8 8 7 6 6 6 6 8 10 12 13 14 15 16 17 18 19 20 21 23 24 25 26 27 28 29 29 29 29 29 29 29 30 30 30 31 31 30 31 31 32 32 32
5 5 5 4 4 2 3 4 1 2 2 3 4 8 8 4 2 4 4 4 9 12 12 11 12 13 12 9 8 8 8 9 8 7 8 12 14 16 17 16 16 15 14 14 14 13 11 10 8 8 7 7 6 6 5 5 4 4 4 5 7 9 10 12 13 14 15 16 17 19 20 21 23 25 26 27 28 29 29 30 30 29 29 29 29 28 28 29 29 30 30 30 30 29 30 31 31
Wind_Direction
325 329 330 326 325 322 333 52 67 323 72 80 320 48 249 232 255 266 276 283 315 248 223 287 152 129 148 160 187 198 177 173 169 121 197 240 297 224 187 182 163 170 181 181 178 182 182 179 183 186 190 190 190 191 191 193 192 192 194 196 191 191 187 186 184 165 161 160 155 148 144 141 138 137 138 138 141 142 138 134 128 125 122 117 116 108 98 96 92 87 84 77 73 69 62 57 56
328 330 337 331 330 352 288 76 90 334 51 73 276 168 260 294 342 228 222 217 212 261 285 269 200 92 67 113 149 138 233 221 191 173 265 270 292 235 192 185 174 166 181 184 180 183 185 182 183 187 191 193 193 192 194 194 194 198 199 199 199 198 192 190 181 166 166 165 159 150 141 135 134 135 140 142 145 142 139 136 133 134 128 125 113 102 94 87 80 74 69 60 35 20 16 10 10
332 329 341 334 336 37 58 42 92 51 71 103 277 242 284 8 230 234 223 220 227 275 304 235 174 121 76 22 57 115 302 270 227 220 281 267 270 234 196 188 173 163 180 185 183 185 187 185 184 188 193 196 195 194 197 196 197 202 202 203 205 200 196 194 177 168 173 169 163 154 146 146 152 157 157 153 151 144 138 137 137 137 131 126 102 93 87 73 67 64 59 42 326 321 320 323 325
335 332 343 340 28 40 62 40 129 113 104 180 305 268 253 193 230 254 243 248 257 285 327 101 80 222 123 349 290 124 294 278 230 196 268 275 232 251 196 190 180 167 179 187 187 187 190 189 187 190 193 196 196 195 199 199 199 203 204 207 207 200 199 192 175 175 180 175 168 161 157 163 169 172 173 165 157 147 142 142 144 137 122 107 93 89 79 69 53 27 356 319 304 306 306 304 303
341 337 350 16 116 41 92 71 106 95 166 184 41 288 249 216 236 273 266 280 279 233 136 92 345 292 120 246 166 141 256 253 260 210 246 312 229 245 194 194 192 174 180 189 190 190 193 192 190 192 194 196 196 196 199 201 201 204 207 208 207 202 199 189 179 183 183 182 174 166 170 176 180 177 176 168 154 146 151 156 152 143 128 108 91 77 358 324 335 338 326 316 308 306 306 303 297
355 347 10 50 100 104 111 87 102 58 225 175 126 274 267 235 226 267 293 299 285 193 148 80 90 341 322 263 199 204 221 98 320 218 247 304 228 223 196 199 197 183 184 190 194 195 195 195 194 193 195 196 196 198 201 202 203 206 210 208 207 203 196 189 186 187 184 187 178 172 184 189 190 179 172 165 155 152 164 170 162 157 151 140 123 58 337 330 340 339 327 318 309 308 314 311 297
8 352 13 56 61 39 98 127 173 223 221 175 191 261 276 264 225 277 326 324 345 359 31 107 175 86 282 298 304 242 228 231 254 233 276 277 230 209 195 201 200 190 187 191 197 198 199 198 197 196 196 197 196 200 202 204 205 208 213 210 208 202 194 194 192 191 189 189 182 182 194 199 197 179 170 167 163 164 172 176 175 180 178 187 198 275 357 5 2 344 325 314 309 312 322 321 301
18 7 25 80 37 31 87 130 213 215 350 226 237 246 266 273 219 226 336 328 309 327 348 291 251 101 282 2 327 263 268 253 267 279 277 259 227 200 192 204 206 195 189 194 199 202 202 200 200 200 199 199 198 202 205 206 207 209 215 214 211 202 196 196 195 196 193 189 187 190 200 208 201 180 176 180 178 175 174 174 185 199 199 215 245 288 325 322 333 335 315 302 303 310 319 323 306
26 24 123 70 72 29 52 60 258 239 270 264 265 257 268 275 205 189 324 301 286 278 300 283 329 356 296 354 283 278 2 310 302 291 267 237 220 199 193 206 217 206 193 194 200 204 204 204 203 203 202 201 200 204 207 208 210 212 215 217 214 205 200 199 198 200 195 191 194 195 204 216 206 189 190 197 198 197 194 186 192 211 228 264 294 302 293 275 272 292 294 287 293 301 312 320 310
33 24 123 60 78 28 1 291 282 245 259 260 269 264 261 249 195 155 251 289 280 223 295 276 104 314 303 311 279 312 355 328 331 306 246 218 216 204 200 208 220 216 202 197 199 205 206 207 206 206 206 203 202 204 208 210 213 215 217 219 217 208 204 203 203 204 198 194 198 199 209 220 210 198 201 205 210 224 234 221 205 232 267 290 300 304 297 281 276 274 276 278 285 296 306 315 310
28 360 92 71 66 54 248 239 286 279 281 291 284 265 238 209 150 108 195 283 300 313 295 76 128 225 9 301 268 295 322 327 326 287 215 206 219 213 209 211 220 216 210 207 202 205 207 209 209 209 209 207 205 205 210 213 215 218 219 220 219 213 207 207 207 208 204 202 202 201 213 223 215 208 207 207 215 227 228 224 238 269 285 295 303 313 306 289 287 273 268 272 281 292 301 309 305
49 345 61 82 117 179 194 215 280 287 303 325 330 329 186 170 98 293 259 286 333 348 280 183 183 166 76 307 269 296 340 353 237 196 190 201 223 221 219 219 221 217 212 213 210 209 209 211 212 212 211 211 209 208 212 215 217 219 220 221 222 216 209 209 211 212 210 209 210 206 217 226 218 212 211 213 222 222 215 226 252 278 293 301 311 321 314 298 290 272 270 276 284 291 297 305 300
102 123 77 81 156 153 150 199 271 304 329 340 283 307 153 159 234 237 210 284 312 359 296 212 179 96 110 269 292 316 359 12 194 180 198 205 222 221 224 225 223 220 213 214 214 213 213 214 216 215 213 214 214 212 215 218 219 220 221 222 222 219 212 213 215 217 215 212 214 215 221 227 218 212 214 219 227 227 220 233 255 278 294 306 317 323 318 307 283 275 280 285 294 300 298 302 293
132 150 104 99 71 133 170 220 300 21 315 277 273 301 326 220 219 191 148 323 278 213 295 219 152 96 276 295 326 304 335 354 330 210 217 214 226 223 225 226 227 225 218 218 218 217 216 218 219 219 216 215 216 216 218 220 221 222 223 224 223 221 217 218 218 219 220 216 216 219 224 230 221 213 219 224 228 233 233 243 262 284 300 311 320 324 321 311 280 279 287 290 301 309 301 297 285
132 130 90 109 33 350 203 240 99 115 249 264 317 318 333 285 168 148 181 259 275 217 279 279 146 243 252 301 292 258 311 346 342 282 254 238 236 228 229 228 230 229 225 223 220 221 219 220 221 222 220 217 218 218 220 221 223 224 225 227 226 224 223 224 223 222 224 223 223 224 226 232 229 221 222 227 230 235 241 253 270 289 304 312 319 323 322 312 281 283 291 294 303 308 301 291 278
116 110 69 81 40 323 232 203 117 110 250 242 288 327 338 297 171 156 234 155 287 297 11 247 201 282 179 195 259 269 320 333 326 306 281 257 243 232 233 230 233 231 230 229 224 225 222 223 223 223 224 221 219 220 221 222 224 226 227 230 229 228 227 227 228 227 228 228 230 231 232 233 234 230 226 229 235 239 243 258 276 291 302 310 317 320 320 313 292 290 296 298 303 305 300 289 274
69 79 68 39 195 223 215 192 168 158 261 264 318 22 23 303 300 254 247 109 277 310 4 262 249 213 194 225 291 309 319 321 315 304 291 269 252 242 240 237 242 235 232 236 234 232 227 228 227 226 226 224 223 221 222 223 225 227 228 230 232 231 230 231 232 231 231 233 235 236 238 240 239 235 231 232 238 244 250 263 279 292 302 306 312 317 318 315 304 298 301 301 304 307 301 286 272
53 77 96 293 202 200 190 184 195 179 282 278 329 32 129 298 310 322 324 4 326 323 309 270 275 274 264 292 315 321 324 327 320 301 296 291 290 287 282 271 261 250 241 242 243 241 235 233 232 231 230 227 226 223 223 224 226 228 229 232 234 235 233 232 232 232 232 233 236 238 240 243 243 240 238 238 242 249 254 264 277 287 296 303 308 315 317 314 309 303 304 304 306 312 306 284 273
82 111 107 238 203 211 199 179 200 198 297 288 305 331 199 256 286 354 318 303 345 333 297 286 284 297 318 313 318 327 331 339 338 322 319 329 339 335 326 314 292 272 257 250 250 249 244 239 236 235 234 231 229 227 225 225 227 228 230 233 235 237 239 237 234 232 233 233 234 236 240 245 243 240 241 243 246 248 254 264 273 283 294 302 304 308 312 309 308 304 303 304 306 314 311 286 276
138 121 106 246 213 237 234 191 211 222 298 308 301 321 234 252 249 355 299 296 322 295 286 317 292 299 310 305 331 347 352 5 13 14 5 1 360 351 339 328 314 298 281 265 257 255 252 246 241 238 237 235 231 230 227 226 228 229 230 231 232 235 239 241 239 235 234 235 235 235 238 244 244 242 239 239 245 247 255 261 267 284 293 293 291 301 308 303 304 302 299 303 305 312 312 291 278
135 140 186 226 192 252 243 199 222 235 215 263 295 338 306 274 204 204 305 312 301 273 262 245 251 280 297 314 351 11 21 26 27 29 25 18 14 9 1 347 327 310 293 276 264 261 261 256 248 241 239 237 234 232 228 226 228 231 234 233 233 233 236 239 238 238 239 235 235 238 239 241 242 244 243 239 240 243 250 253 262 281 281 278 287 302 305 297 300 303 301 303 303 307 310 296 281
140 214 196 189 155 244 254 193 213 221 152 253 316 321 296 303 240 209 194 265 281 319 198 215 236 279 324 4 11 23 30 29 26 26 23 18 16 12 9 5 356 339 318 294 273 261 259 258 254 246 242 239 236 234 231 229 227 229 233 236 238 237 237 237 231 229 232 235 236 237 240 241 239 243 245 241 239 242 246 252 263 274 276 283 298 305 297 288 295 304 304 303 302 303 307 299 286
207 273 255 215 174 225 270 194 213 163 57 285 281 292 308 337 305 243 210 238 257 17 99 129 60 51 69 54 36 32 30 27 24 22 19 15 12 10 10 11 9 4 357 339 299 266 253 248 248 247 245 241 237 235 232 230 229 230 232 236 241 241 243 248 244 228 217 229 242 241 243 240 238 242 240 234 237 239 234 240 257 272 284 287 291 295 290 286 295 302 303 301 300 299 301 299 290
155 264 298 273 186 215 262 310 289 263 252 256 258 321 309 291 296 308 273 260 336 14 54 77 70 62 62 55 41 36 31 26 22 22 24 21 16 15 18 18 17 16 14 9 347 293 264 244 236 241 245 243 238 234 230 228 228 230 232 237 241 246 250 253 258 245 222 225 239 247 246 236 233 240 237 231 234 238 237 254 279 281 284 283 287 294 292 293 296 299 300 297 298 297 296 296 290
181 228 276 281 211 240 269 296 288 273 252 253 291 294 261 244 268 315 297 20 55 43 60 60 64 56 49 48 39 33 30 24 17 18 24 23 23 28 28 24 23 23 21 20 18 5 296 247 225 227 239 242 237 233 228 226 227 227 230 236 238 242 245 241 247 255 243 228 225 240 244 233 230 238 234 226 227 249 269 285 286 277 278 285 294 295 292 294 294 295 294 293 296 295 294 295 290
210 203 251 287 297 289 302 297 271 268 257 202 275 282 266 253 273 299 305 73 88 66 59 41 54 53 42 43 35 32 30 22 14 14 19 22 27 30 27 26 26 24 24 27 32 35 30 245 206 205 224 235 233 231 228 225 225 226 228 234 239 243 251 257 262 270 255 230 224 248 249 235 233 242 236 229 240 261 263 271 276 272 276 282 288 288 286 292 296 293 290 291 296 295 294 293 291
187 181 251 261 296 301 318 301 280 285 272 197 223 276 282 313 302 260 329 37 109 74 55 38 57 54 41 41 32 34 33 24 17 18 21 21 25 23 22 24 25 25 27 34 40 44 51 72 104 129 172 213 219 220 225 226 225 226 229 233 240 246 251 261 270 277 262 242 246 260 259 245 237 241 246 251 266 267 260 266 269 270 277 284 287 284 282 285 289 290 288 292 296 295 294 292 292
123 100 298 284 313 302 256 277 283 285 275 199 185 262 300 1 272 193 326 339 75 82 63 43 58 52 42 40 33 35 32 27 24 29 26 18 18 17 21 24 23 28 31 34 43 53 62 68 75 82 95 116 181 199 209 218 225 228 235 242 249 254 250 256 279 289 275 270 270 257 256 269 252 245 256 266 264 258 264 266 259 262 280 291 290 287 286 285 287 290 290 292 294 295 295 294 294
101 56 333 301 340 322 265 271 293 179 225 181 158 283 311 250 224 306 27 84 84 78 68 48 54 47 41 37 36 38 29 29 29 29 24 19 22 22 27 29 30 34 36 40 49 59 66 70 74 77 82 86 99 133 169 192 213 228 247 264 267 290 312 265 303 314 276 283 295 273 260 276 270 261 264 264 255 250 258 268 270 279 291 293 293 294 293 291 291 291 290 291 294 297 298 298 296
293 39 25 308 347 325 283 350 25 358 197 160 152 285 290 260 250 340 356 120 90 68 60 47 48 41 39 34 36 38 29 30 29 26 23 24 27 28 31 35 39 42 43 48 54 61 68 75 80 81 83 85 87 90 98 116 128 145 240 272 254 252 252 242 230 227 242 255 264 267 263 262 264 268 266 260 257 257 262 283 300 303 299 295 297 298 295 293 293 291 292 293 295 297 299 300 298
312 331 23 345 333 283 290 290 55 314 300 121 135 210 267 274 297 12 341 91 93 80 64 45 48 39 34 34 34 37 31 31 29 27 27 28 29 33 36 39 45 48 49 53 56 63 70 76 83 87 89 90 92 94 95 100 104 106 107 82 1 329 319 358 4 337 329 328 313 304 302 294 284 282 273 268 272 272 276 291 298 296 296 297 299 300 298 297 294 293 295 295 296 297 299 300 300
20 315 305 338 198 269 307 291 192 216 303 74 126 188 269 275 257 37 353 47 93 91 71 49 50 42 37 35 33 33 25 28 29 27 27 29 31 35 39 44 48 51 53 57 61 67 72 76 82 87 90 93 96 99 101 103 103 101 97 88 73 61 59 53 49 53 56 52 49 47 37 31 22 4 346 330 316 298 295 297 293 292 293 292 293 297 299 299 299 299 299 297 296 297 298 301 302
351 259 252 269 221 279 317 309 217 196 257 40 96 198 273 278 213 69 17 44 94 91 78 60 52 45 43 36 33 35 24 24 24 21 23 29 33 38 44 49 53 56 59 63 67 70 74 77 81 85 87 91 95 98 100 100 98 97 93 90 85 78 74 71 67 64 63 62 60 58 56 55 50 42 36 26 14 359 345 333 325 320 312 303 298 298 300 298 297 296 296 296 295 296 299 301 303
308 348 233 253 227 231 299 307 325 56 104 56 27 212 248 276 268 45 24 37 89 87 80 66 58 52 47 42 41 36 30 30 17 13 18 27 36 43 50 55 59 62 64 67 71 73 76 79 83 87 89 92 94 97 98 98 98 96 93 91 87 83 79 77 75 70 66 63 60 58 56 57 56 55 52 46 40 32 24 17 7 1 356 353 348 337 324 313 307 302 300 301 299 299 300 302 304
229 229 221 257 245 228 263 277 304 29 22 340 350 263 256 276 286 10 21 29 81 83 84 75 65 60 51 46 47 38 37 36 17 15 21 30 38 45 53 58 61 64 67 70 74 77 80 81 86 90 92 94 96 97 98 99 99 97 94 92 88 83 80 77 75 74 71 68 66 61 58 56 54 55 54 50 47 43 40 38 35 31 26 21 16 7 359 348 338 329 322 319 316 311 308 306 305
212 220 211 228 248 248 238 249 264 7 354 306 259 260 262 270 286 356 12 23 76 84 82 76 67 65 59 52 48 40 44 33 19 24 31 37 41 47 54 59 62 65 68 71 75 78 78 81 85 88 89 95 99 100 99 98 96 94 92 89 85 81 79 78 75 75 74 71 70 67 63 61 57 55 52 47 44 42 41 41 40 38 33 30 26 22 17 8 359 350 342 336 332 327 321 317 312
195 225 240 230 238 265 256 258 280 343 346 277 250 254 263 262 294 350 354 27 69 77 84 83 77 72 64 64 57 48 52 35 29 34 37 42 46 49 54 59 64 66 67 70 73 73 74 79 82 82 84 91 95 95 95 94 92 91 88 85 82 79 79 78 75 72 72 70 69 68 65 63 60 58 54 50 48 45 41 37 34 33 32 30 28 28 24 17 11 3 356 350 344 337 331 328 323
242 237 259 266 237 257 263 259 294 328 184 265 274 280 273 263 321 347 353 53 55 72 108 111 103 93 77 75 65 52 53 33 34 35 36 42 46 48 52 56 60 61 62 66 69 71 74 78 79 80 83 87 88 89 92 91 91 93 91 88 85 81 78 77 74 71 70 70 68 65 63 60 58 57 54 52 51 48 45 42 38 36 33 31 30 29 27 24 20 14 8 360 352 342 334 334 331
245 236 263 274 247 277 288 280 319 16 180 265 309 290 274 277 31 2 9 66 51 40 96 107 114 113 92 80 68 55 51 32 33 30 31 39 43 46 50 53 57 60 63 66 68 71 74 76 78 81 84 87 88 90 92 92 93 95 94 93 90 86 80 77 76 73 70 68 65 63 61 58 57 56 53 51 50 48 46 45 42 40 38 36 34 31 29 28 26 22 18 9 360 350 343 341 338
223 197 218 256 242 344 283 285 335 18 194 262 295 280 274 273 97 50 27 64 76 52 67 67 72 100 98 85 67 56 53 37 32 27 29 37 41 43 47 51 56 61 63 65 67 69 72 74 77 81 84 86 88 90 92 94 95 95 95 94 93 89 84 82 79 73 69 67 63 61 58 56 55 54 52 51 50 49 47 45 43 40 39 38 35 35 34 32 30 27 26 21 11 359 350 346 342
237 202 212 241 235 214 229 281 335 336 346 344 308 304 291 259 232 146 44 49 66 50 68 70 49 64 85 78 62 52 52 44 36 33 28 35 39 42 48 54 59 61 62 64 67 71 74 76 79 82 84 86 88 91 94 98 98 97 97 95 92 87 79 75 71 67 66 65 63 61 59 57 56 54 52 50 48 47 45 44 42 40 39 37 36 36 36 33 31 28 26 26 22 10 356 347 343
291 228 215 224 227 227 239 322 4 353 340 351 7 305 293 297 278 187 107 57 56 34 56 79 54 49 61 61 54 44 49 49 46 47 40 40 45 49 55 59 63 65 66 69 73 76 79 81 82 84 84 85 86 89 93 96 95 93 91 87 82 77 71 66 66 66 67 67 66 65 63 60 58 57 54 52 50 49 47 45 43 42 40 38 36 35 34 32 30 29 27 25 25 20 8 358 351
275 247 213 215 217 230 253 232 94 220 262 313 45 182 264 304 324 126 122 97 81 49 66 93 53 48 53 51 44 37 40 41 45 48 46 46 49 53 57 61 67 71 74 78 81 81 83 84 85 85 85 85 86 87 88 89 87 85 84 82 79 78 76 72 71 72 71 71 70 68 65 63 60 59 57 55 53 51 50 49 47 46 44 41 38 34 33 31 28 28 25 23 23 20 16 11 2
238 252 165 176 196 210 216 172 176 228 251 326 8 137 251 283 290 307 128 123 191 225 196 212 107 54 52 48 43 46 39 37 49 47 43 47 53 59 64 69 75 79 83 85 85 85 86 86 87 87 87 86 86 87 86 86 86 86 85 84 81 80 80 79 76 75 74 72 70 67 64 62 60 58 57 55 53 51 50 49 48 47 46 44 42 40 37 33 29 25 20 17 15 11 12 10 4
241 218 120 134 162 168 146 136 177 265 13 309 298 149 249 268 272 318 120 159 231 216 198 208 206 208 165 88 61 60 51 45 57 58 53 55 62 70 77 82 85 87 87 88 89 89 89 89 89 89 87 87 86 86 86 86 87 87 86 85 83 81 81 79 77 74 71 69 66 63 61 59 57 56 54 52 51 49 48 47 46 45 44 43 41 40 39 36 33 31 27 23 18 12 9 4 357
214 130 96 76 76 88 90 115 136 48 35 246 239 188 217 276 281 235 176 239 237 196 181 206 211 222 209 161 142 102 78 60 56 62 66 68 77 84 90 92 92 92 92 93 94 94 93 92 91 89 88 88 87 87 87 86 86 86 85 85 83 82 80 77 75 71 67 65 62 58 55 53 51 50 49 48 47 45 44 42 42 42 41 40 39 37 35 33 32 31 30 28 27 24 19 13 5
142 109 65 45 38 43 42 66 94 63 277 240 224 197 195 266 280 221 203 218 185 147 159 200 207 214 210 196 180 152 118 91 67 66 75 83 93 98 99 98 96 97 98 98 97 97 96 95 93 91 89 89 88 88 87 86 85 84 84 83 82 79 77 74 71 66 62 60 58 54 51 49 46 44 42 41 41 39 39 38 37 36 36 35 35 33 31 29 28 26 25 23 23 24 21 19 16
109 93 70 62 339 7 21 356 45 143 255 259 261 220 179 235 263 241 225 211 173 163 173 186 192 197 194 190 184 171 155 129 100 84 93 101 106 107 105 102 101 102 101 101 100 100 99 98 96 94 92 90 89 88 87 86 84 83 82 80 78 75 72 69 66 63 58 55 52 48 46 43 40 38 35 33 32 31 31 31 31 30 30 29 28 27 25 23 22 20 19 18 16 16 14 13 12
87 99 93 83 331 1 356 314 16 227 251 269 324 358 208 240 250 232 222 214 206 204 188 180 182 184 182 181 177 168 161 147 139 138 132 124 120 117 112 108 107 106 106 105 105 104 103 101 98 96 94 92 90 87 86 84 82 81 79 76 74 71 67 64 62 59 55 52 48 44 41 37 34 31 28 26 24 22 22 23 23 23 22 22 20 19 17 15 13 11 10 10 9 9 7 6 4
135 147 129 123 105 58 296 274 272 273 272 278 288 267 243 270 273 230 227 240 250 260 235 188 176 174 173 169 163 160 167 169 166 168 166 151 141 133 122 117 115 113 112 111 110 109 106 103 100 98 97 94 90 87 84 82 80 78 75 73 70 67 64 61 59 57 54 51 47 44 41 35 31 26 23 20 17 16 15 15 15 14 13 12 11 10 8 6 4 2 1 360 360 360 359 358 357
175 160 132 143 151 156 226 233 224 266 290 300 283 213 199 226 246 245 247 271 291 273 216 160 144 148 147 141 147 161 175 182 180 178 180 171 156 144 133 126 124 122 120 117 115 113 109 106 103 100 99 95 90 87 84 82 81 77 73 70 66 62 60 58 56 53 50 47 43 40 36 30 25 20 16 14 11 9 9 8 8 7 5 4 3 2 0 358 356 354 352 351 351 350 349 349 349
205 133 114 157 178 171 213 201 172 188 304 296 237 212 224 195 175 309 294 322 357 42 136 134 132 134 134 147 168 178 186 188 185 184 188 181 165 152 142 136 132 129 126 123 121 118 113 109 106 102 99 96 91 87 83 80 77 73 68 65 61 57 55 52 51 48 43 39 33 29 26 20 16 12 8 6 4 3 1 1 0 0 360 359 358 358 356 354 351 349 347 344 343 342 341 341 341
163 119 179 224 181 147 179 267 112 98 274 270 199 245 283 323 1 338 15 34 35 71 134 145 150 150 155 178 189 190 194 187 186 190 188 181 170 160 151 144 140 136 132 129 126 121 117 113 109 105 101 96 91 86 81 76 73 70 65 62 58 53 48 44 40 37 32 27 21 17 13 9 6 3 1 358 356 355 354 353 352 352 352 352 352 352 351 350 348 346 344 342 340 339 336 335 335
126 173 219 220 141 102 104 256 1 33 261 273 216 242 270 278 272 335 22 314 218 169 163 152 154 167 180 194 197 197 195 186 187 190 189 185 175 165 158 151 146 141 136 133 129 123 118 114 109 106 102 97 91 85 79 74 69 66 63 59 54 48 43 39 34 30 24 18 14 10 6 3 0 356 353 351 349 348 347 346 345 345 345 345 346 346 345 345 344 342 341 340 338 337 334 332 332
124 192 209 113 152 181 92 139 251 262 264 281 289 274 259 220 225 226 216 220 202 184 182 172 179 187 191 197 200 198 189 181 186 189 194 193 183 172 163 156 150 145 139 134 129 124 120 117 112 107 101 96 90 83 77 73 69 67 65 60 56 51 48 43 39 31 21 15 10 5 1 359 356 353 350 349 348 346 345 344 343 342 342 341 341 341 341 340 340 339 338 336 336 335 332 329 329
76 126 358 65 165 178 139 141 179 224 258 271 290 304 278 230 208 184 204 208 183 176 189 193 195 195 194 195 193 191 185 183 189 190 195 195 187 178 168 160 156 150 145 139 134 130 126 122 116 108 101 96 91 87 83 80 78 75 72 70 65 57 48 37 27 16 7 3 359 354 352 351 350 349 348 348 348 347 346 345 344 343 342 341 340 339 338 337 336 335 335 334 333 332 330 327 325
128 163 253 241 162 131 243 227 144 155 208 238 275 284 268 250 194 183 211 210 181 184 192 196 200 198 198 198 188 182 182 187 193 189 189 192 188 180 172 167 162 157 153 150 146 140 134 128 122 114 109 106 102 98 96 92 88 83 78 74 58 39 28 17 8 3 358 355 353 350 349 348 347 346 346 346 345 345 345 344 344 343 342 341 340 338 337 336 334 333 332 331 330 328 326 324 322
166 183 199 196 178 164 256 258 186 129 185 192 235 268 267 258 200 197 222 211 193 197 196 195 202 200 198 197 185 181 186 192 194 185 182 188 186 181 178 175 173 170 166 162 156 149 142 139 135 131 128 124 119 116 112 106 103 92 72 55 34 20 12 5 360 358 356 354 352 350 347 345 344 343 343 342 341 341 341 341 341 341 341 340 339 338 337 335 333 331 329 327 326 325 322 320 318